Time,TemperatureF,DewpointF,PressureIn,WindDirection,WindDirectionDegrees,WindSpeedMPH,WindSpeedGustMPH,Humidity,HourlyPrecipIn,Conditions,Clouds,dailyrainin,SoftwareType,DateUTC
2013-09-06 00:01:00,72.8,72.5,30.01,NE,53,0.0,0.0,99,0.00,,,0.00,VWS V14.00,2013-09-06 04:01:00,
2013-09-06 00:02:00,72.8,72.5,30.01,NE,53,0.0,0.0,99,0.00,,,0.00,VWS V14.00,2013-09-06 04:02:00,
2013-09-06 00:03:00,72.7,72.4,30.01,NE,53,0.0,0.0,99,0.00,,,0.00,VWS V14.00,2013-09-06 04:03:00,
2013-09-06 00:05:00,72.7,72.4,30.01,NE,53,0.0,0.0,99,0.00,,,0.00,VWS V14.00,2013-09-06 04:05:00,
2013-09-06 00:06:00,72.7,72.4,30.01,NE,52,0.0,0.0,99,0.00,,,0.00,VWS V14.00,2013-09-06 04:06:00,
2013-09-06 00:11:00,72.6,72.3,30.01,NE,53,0.0,0.0,99,0.00,,,0.00,VWS V14.00,2013-09-06 04:11:00,
2013-09-06 00:14:00,72.5,72.2,30.01,NE,53,0.0,0.0,99,0.00,,,0.00,VWS V14.00,2013-09-06 04:14:00,
2013-09-06 00:19:00,72.4,72.1,30.01,NE,52,0.0,0.0,99,0.00,,,0.00,VWS V14.00,2013-09-06 04:19:00,
2013-09-06 00:24:00,72.4,72.1,30.01,NE,53,0.0,0.0,99,0.00,,,0.00,VWS V14.00,2013-09-06 04:24:00,
2013-09-06 00:29:00,72.4,72.1,30.01,NE,52,0.0,0.0,99,0.00,,,0.00,VWS V14.00,2013-09-06 04:29:00,
2013-09-06 00:34:00,72.4,72.1,30.01,NE,53,0.0,0.0,99,0.00,,,0.00,VWS V14.00,2013-09-06 04:34:00,
2013-09-06 00:39:00,72.5,72.2,30.01,NE,53,0.0,0.0,99,0.00,,,0.00,VWS V14.00,2013-09-06 04:39:00,
2013-09-06 00:44:00,72.5,72.2,30.01,NE,53,0.0,0.0,99,0.00,,,0.00,VWS V14.00,2013-09-06 04:44:00,
2013-09-06 00:49:00,72.5,72.2,30.01,NE,53,0.0,0.0,99,0.00,,,0.00,VWS V14.00,2013-09-06 04:49:00,
2013-09-06 00:54:00,72.5,72.2,30.01,NE,53,0.0,0.0,99,0.00,,,0.00,VWS V14.00,2013-09-06 04:54:00,
2013-09-06 00:59:00,72.4,72.1,30.01,NE,53,0.0,0.0,99,0.00,,,0.00,VWS V14.00,2013-09-06 04:59:00,
2013-09-06 01:04:00,72.3,72.0,30.01,NE,53,0.0,0.0,99,0.00,,,0.00,VWS V14.00,2013-09-06 05:04:00,
2013-09-06 01:09:00,72.3,72.0,30.01,NE,52,0.0,0.0,99,0.00,,,0.00,VWS V14.00,2013-09-06 05:09:00,
2013-09-06 01:14:00,72.1,71.8,30.01,NE,53,0.0,0.0,99,0.00,,,0.00,VWS V14.00,2013-09-06 05:14:00,
2013-09-06 01:19:00,72.0,71.7,30.01,NE,52,0.0,0.0,99,0.00,,,0.00,VWS V14.00,2013-09-06 05:19:00,
2013-09-06 01:24:00,72.0,71.7,30.01,NE,53,0.0,0.0,99,0.00,,,0.00,VWS V14.00,2013-09-06 05:24:00,
2013-09-06 06:18:00,69.0,68.7,30.01,NE,53,0.0,0.0,99,0.00,,,0.00,VWS V14.00,2013-09-06 10:18:00,
2013-09-06 06:23:00,68.9,68.6,30.01,NE,52,0.0,0.0,99,0.00,,,0.00,VWS V14.00,2013-09-06 10:23:00,
2013-09-06 06:28:00,68.8,68.5,30.01,NE,52,0.0,0.0,99,0.00,,,0.00,VWS V14.00,2013-09-06 10:28:00,
2013-09-06 06:33:00,68.7,68.4,30.01,NE,53,0.0,0.0,99,0.00,,,0.00,VWS V14.00,2013-09-06 10:33:00,
2013-09-06 06:38:00,68.7,68.4,30.02,NE,52,0.0,0.0,99,0.00,,,0.00,VWS V14.00,2013-09-06 10:38:00,
2013-09-06 06:44:00,68.6,68.3,30.02,NE,53,0.0,0.0,99,0.00,,,0.00,VWS V14.00,2013-09-06 10:44:00,
2013-09-06 06:49:00,68.5,68.2,30.02,NE,53,0.0,0.0,99,0.00,,,0.00,VWS V14.00,2013-09-06 10:49:00,
2013-09-06 06:54:00,68.5,68.2,30.02,NE,53,0.0,1.0,99,0.00,,,0.00,VWS V14.00,2013-09-06 10:54:00,
2013-09-06 06:59:00,68.3,67.7,30.02,NE,53,0.0,1.0,98,0.00,,,0.00,VWS V14.00,2013-09-06 10:59:00,
2013-09-06 07:04:00,68.3,67.7,30.02,NE,52,0.0,0.0,98,0.00,,,0.00,VWS V14.00,2013-09-06 11:04:00,
2013-09-06 07:31:00,68.3,67.7,30.03,NE,53,0.0,0.0,98,0.00,,,0.00,VWS V14.00,2013-09-06 11:31:00,
2013-09-06 07:36:00,68.4,67.8,30.03,NE,52,0.0,1.0,98,0.00,,,0.00,VWS V14.00,2013-09-06 11:36:00,
2013-09-06 07:42:00,68.4,67.5,30.04,NE,53,0.0,1.0,97,0.00,,,0.00,VWS V14.00,2013-09-06 11:42:00,
2013-09-06 07:47:00,68.5,67.6,30.03,NE,52,1.0,2.0,97,0.00,,,0.00,VWS V14.00,2013-09-06 11:47:00,
2013-09-06 07:52:00,68.7,67.8,30.03,NE,53,2.0,2.0,97,0.00,,,0.00,VWS V14.00,2013-09-06 11:52:00,
2013-09-06 07:57:00,68.9,67.7,30.04,NE,53,0.0,3.0,96,0.00,,,0.00,VWS V14.00,2013-09-06 11:57:00,
2013-09-06 08:02:00,69.2,68.0,30.04,NE,55,1.0,2.0,96,0.00,,,0.00,VWS V14.00,2013-09-06 12:02:00,
2013-09-06 08:07:00,69.4,68.2,30.04,NE,55,1.0,2.0,96,0.00,,,0.00,VWS V14.00,2013-09-06 12:07:00,
2013-09-06 08:12:00,69.5,68.0,30.04,NE,55,1.0,1.0,95,0.00,,,0.00,VWS V14.00,2013-09-06 12:12:00,
2013-09-06 08:17:00,69.6,68.1,30.04,NE,55,0.0,2.0,95,0.00,,,0.00,VWS V14.00,2013-09-06 12:17:00,
2013-09-06 08:22:00,69.7,68.2,30.04,NE,55,0.0,2.0,95,0.00,,,0.00,VWS V14.00,2013-09-06 12:22:00,
2013-09-06 08:27:00,69.8,68.3,30.05,NE,55,3.0,3.0,95,0.00,,,0.00,VWS V14.00,2013-09-06 12:27:00,
2013-09-06 08:32:00,69.9,68.4,30.04,ENE,61,2.0,2.0,95,0.00,,,0.00,VWS V14.00,2013-09-06 12:32:00,
2013-09-06 08:37:00,70.0,68.5,30.04,ENE,62,0.0,2.0,95,0.00,,,0.00,VWS V14.00,2013-09-06 12:37:00,
2013-09-06 08:42:00,70.1,68.6,30.04,ENE,62,1.0,2.0,95,0.00,,,0.00,VWS V14.00,2013-09-06 12:42:00,
2013-09-06 08:47:00,70.3,68.8,30.04,ENE,61,2.0,2.0,95,0.00,,,0.00,VWS V14.00,2013-09-06 12:47:00,
2013-09-06 08:52:00,70.6,69.1,30.04,ENE,62,2.0,3.0,95,0.00,,,0.00,VWS V14.00,2013-09-06 12:52:00,
2013-09-06 08:58:00,71.2,69.7,30.04,ENE,62,0.0,3.0,95,0.00,,,0.00,VWS V14.00,2013-09-06 12:58:00,
2013-09-06 09:03:00,71.7,69.9,30.04,NE,46,3.0,4.0,94,0.00,,,0.00,VWS V14.00,2013-09-06 13:03:00,
2013-09-06 09:08:00,72.3,70.5,30.04,ENE,57,3.0,5.0,94,0.00,,,0.00,VWS V14.00,2013-09-06 13:08:00,
2013-09-06 09:13:00,72.9,70.8,30.04,NE,47,1.0,2.0,93,0.00,,,0.00,VWS V14.00,2013-09-06 13:13:00,
2013-09-06 09:18:00,73.4,71.3,30.05,NE,53,0.0,3.0,93,0.00,,,0.00,VWS V14.00,2013-09-06 13:18:00,
2013-09-06 09:23:00,73.7,71.2,30.04,NE,51,0.0,2.0,92,0.00,,,0.00,VWS V14.00,2013-09-06 13:23:00,
2013-09-06 09:28:00,74.2,71.7,30.05,NE,51,0.0,2.0,92,0.00,,,0.00,VWS V14.00,2013-09-06 13:28:00,
2013-09-06 09:33:00,74.5,71.7,30.05,ENE,59,2.0,2.0,91,0.00,,,0.00,VWS V14.00,2013-09-06 13:33:00,
2013-09-06 09:38:00,74.8,72.0,30.05,ENE,61,1.0,2.0,91,0.00,,,0.00,VWS V14.00,2013-09-06 13:38:00,
2013-09-06 09:43:00,75.1,72.0,30.05,ENE,62,2.0,2.0,90,0.00,,,0.00,VWS V14.00,2013-09-06 13:43:00,
2013-09-06 09:48:00,75.6,72.5,30.05,NE,53,4.0,5.0,90,0.00,,,0.00,VWS V14.00,2013-09-06 13:48:00,
2013-09-06 09:53:00,76.0,72.2,30.05,NE,49,2.0,3.0,88,0.00,,,0.00,VWS V14.00,2013-09-06 13:53:00,
2013-09-06 09:58:00,76.5,72.7,30.05,NE,55,0.0,5.0,88,0.00,,,0.00,VWS V14.00,2013-09-06 13:58:00,
2013-09-06 10:03:00,77.1,73.3,30.05,NE,36,1.0,4.0,88,0.00,,,0.00,VWS V14.00,2013-09-06 14:03:00,
2013-09-06 10:09:00,77.5,73.3,30.05,NE,53,3.0,5.0,87,0.00,,,0.00,VWS V14.00,2013-09-06 14:09:00,
2013-09-06 10:14:00,77.7,72.8,30.05,NNE,33,3.0,5.0,85,0.00,,,0.00,VWS V14.00,2013-09-06 14:14:00,
2013-09-06 10:19:00,78.0,72.8,30.05,ENE,59,3.0,5.0,84,0.00,,,0.00,VWS V14.00,2013-09-06 14:19:00,
2013-09-06 10:24:00,78.4,73.5,30.05,NE,53,0.0,3.0,85,0.00,,,0.00,VWS V14.00,2013-09-06 14:24:00,
2013-09-06 10:29:00,78.9,73.7,30.05,NE,53,2.0,3.0,84,0.00,,,0.00,VWS V14.00,2013-09-06 14:29:00,
2013-09-06 10:34:00,79.4,73.8,30.05,ENE,60,2.0,3.0,83,0.00,,,0.00,VWS V14.00,2013-09-06 14:34:00,
2013-09-06 10:39:00,79.8,73.4,30.05,NE,44,2.0,4.0,81,0.00,,,0.00,VWS V14.00,2013-09-06 14:39:00,
2013-09-06 10:44:00,80.0,73.3,30.05,ENE,58,2.0,5.0,80,0.00,,,0.00,VWS V14.00,2013-09-06 14:44:00,
2013-09-06 10:49:00,80.3,73.6,30.05,ENE,60,4.0,5.0,80,0.00,,,0.00,VWS V14.00,2013-09-06 14:49:00,
2013-09-06 10:54:00,80.7,74.0,30.05,NNE,29,2.0,4.0,80,0.00,,,0.00,VWS V14.00,2013-09-06 14:54:00,
2013-09-06 10:59:00,81.0,73.5,30.05,NE,46,3.0,4.0,78,0.00,,,0.00,VWS V14.00,2013-09-06 14:59:00,
2013-09-06 11:04:00,81.3,73.8,30.05,NE,37,2.0,4.0,78,0.00,,,0.00,VWS V14.00,2013-09-06 15:04:00,
2013-09-06 11:09:00,81.6,74.1,30.06,NNE,28,2.0,4.0,78,0.00,,,0.00,VWS V14.00,2013-09-06 15:09:00,
2013-09-06 11:15:00,82.0,74.1,30.06,ENE,65,2.0,2.0,77,0.00,,,0.00,VWS V14.00,2013-09-06 15:15:00,
2013-09-06 11:20:00,82.5,74.9,30.06,ENE,65,3.0,3.0,78,0.00,,,0.00,VWS V14.00,2013-09-06 15:20:00,
2013-09-06 11:25:00,82.9,74.6,30.06,NE,53,0.0,5.0,76,0.00,,,0.00,VWS V14.00,2013-09-06 15:25:00,
2013-09-06 11:30:00,83.1,74.0,30.06,ENE,69,2.0,5.0,74,0.00,,,0.00,VWS V14.00,2013-09-06 15:30:00,
2013-09-06 11:35:00,83.3,74.6,30.06,NE,53,0.0,2.0,75,0.00,,,0.00,VWS V14.00,2013-09-06 15:35:00,
2013-09-06 11:40:00,83.7,74.9,30.06,NE,55,1.0,3.0,75,0.00,,,0.00,VWS V14.00,2013-09-06 15:40:00,
2013-09-06 11:45:00,84.1,74.5,30.06,NE,37,4.0,4.0,73,0.01,,,0.01,VWS V14.00,2013-09-06 15:45:00,
2013-09-06 11:50:00,84.1,73.7,30.06,NE,52,1.0,4.0,71,0.01,,,0.01,VWS V14.00,2013-09-06 15:50:00,
2013-09-06 11:55:00,84.4,74.8,30.06,ENE,57,2.0,2.0,73,0.01,,,0.01,VWS V14.00,2013-09-06 15:55:00,
2013-09-06 12:00:00,84.5,74.5,30.06,NE,40,1.0,4.0,72,0.01,,,0.01,VWS V14.00,2013-09-06 16:00:00,
2013-09-06 12:05:00,84.5,74.1,30.06,ENE,59,4.0,6.0,71,0.01,,,0.01,VWS V14.00,2013-09-06 16:05:00,
2013-09-06 12:10:00,84.5,74.5,30.06,NE,34,0.0,6.0,72,0.01,,,0.01,VWS V14.00,2013-09-06 16:10:00,
2013-09-06 12:16:00,84.6,74.2,30.06,NE,46,3.0,6.0,71,0.01,,,0.01,VWS V14.00,2013-09-06 16:16:00,
2013-09-06 12:21:00,84.7,73.4,30.05,ENE,59,1.0,6.0,69,0.01,,,0.01,VWS V14.00,2013-09-06 16:21:00,
2013-09-06 12:26:00,85.0,75.4,30.06,NE,55,1.0,3.0,73,0.01,,,0.01,VWS V14.00,2013-09-06 16:26:00,
2013-09-06 12:31:00,85.2,73.9,30.06,NE,49,1.0,4.0,69,0.01,,,0.01,VWS V14.00,2013-09-06 16:31:00,
2013-09-06 12:36:00,85.3,73.6,30.05,NE,55,2.0,6.0,68,0.01,,,0.01,VWS V14.00,2013-09-06 16:36:00,
2013-09-06 12:41:00,85.5,74.6,30.05,NE,52,1.0,6.0,70,0.01,,,0.01,VWS V14.00,2013-09-06 16:41:00,
2013-09-06 12:46:00,86.0,73.8,30.05,South,182,1.0,3.0,67,0.01,,,0.01,VWS V14.00,2013-09-06 16:46:00,
2013-09-06 12:51:00,86.3,74.1,30.05,NE,51,1.0,2.0,67,0.00,,,0.01,VWS V14.00,2013-09-06 16:51:00,
2013-09-06 12:56:00,86.4,74.2,30.05,NE,45,2.0,5.0,67,0.00,,,0.01,VWS V14.00,2013-09-06 16:56:00,
2013-09-06 13:01:00,86.3,73.6,30.05,NE,55,1.0,3.0,66,0.00,,,0.01,VWS V14.00,2013-09-06 17:01:00,
2013-09-06 13:06:00,86.7,74.4,30.04,NE,40,2.0,3.0,67,0.00,,,0.01,VWS V14.00,2013-09-06 17:06:00,
2013-09-06 13:11:00,86.8,73.2,30.04,NE,55,3.0,4.0,64,0.00,,,0.01,VWS V14.00,2013-09-06 17:11:00,
2013-09-06 13:16:00,86.7,72.1,30.05,NE,44,3.0,7.0,62,0.00,,,0.01,VWS V14.00,2013-09-06 17:16:00,
2013-09-06 13:21:00,86.5,71.9,30.04,NE,43,2.0,2.0,62,0.00,,,0.01,VWS V14.00,2013-09-06 17:21:00,
2013-09-06 13:27:00,86.6,73.0,30.04,NE,38,2.0,3.0,64,0.00,,,0.01,VWS V14.00,2013-09-06 17:27:00,
2013-09-06 13:32:00,86.7,72.6,30.04,NE,53,2.0,2.0,63,0.00,,,0.01,VWS V14.00,2013-09-06 17:32:00,
2013-09-06 13:37:00,86.7,72.1,30.04,NE,40,0.0,4.0,62,0.00,,,0.01,VWS V14.00,2013-09-06 17:37:00,
2013-09-06 13:42:00,86.9,73.3,30.04,WNW,291,1.0,2.0,64,0.00,,,0.01,VWS V14.00,2013-09-06 17:42:00,
2013-09-06 13:47:00,86.9,73.7,30.03,NE,37,1.0,2.0,65,0.00,,,0.01,VWS V14.00,2013-09-06 17:47:00,
2013-09-06 13:52:00,87.2,73.1,30.03,NE,56,1.0,2.0,63,0.00,,,0.01,VWS V14.00,2013-09-06 17:52:00,
2013-09-06 13:57:00,87.2,73.1,30.03,ENE,58,1.0,3.0,63,0.00,,,0.01,VWS V14.00,2013-09-06 17:57:00,
2013-09-06 14:02:00,86.8,73.2,30.03,ENE,76,2.0,2.0,64,0.00,,,0.01,VWS V14.00,2013-09-06 18:02:00,
2013-09-06 14:07:00,86.6,73.0,30.02,ENE,75,0.0,2.0,64,0.00,,,0.01,VWS V14.00,2013-09-06 18:07:00,
2013-09-06 14:12:00,87.4,74.2,30.02,East,98,1.0,3.0,65,0.00,,,0.01,VWS V14.00,2013-09-06 18:12:00,
2013-09-06 14:17:00,88.0,74.8,30.02,NE,41,1.0,3.0,65,0.00,,,0.01,VWS V14.00,2013-09-06 18:17:00,
2013-09-06 14:22:00,87.5,73.8,30.02,South,174,1.0,4.0,64,0.00,,,0.01,VWS V14.00,2013-09-06 18:22:00,
2013-09-06 14:28:00,87.1,75.3,30.02,SE,128,1.0,4.0,68,0.00,,,0.01,VWS V14.00,2013-09-06 18:28:00,
2013-09-06 14:33:00,87.0,74.7,30.02,SE,140,2.0,2.0,67,0.00,,,0.01,VWS V14.00,2013-09-06 18:33:00,
2013-09-06 14:38:00,87.3,75.0,30.02,ESE,123,0.0,7.0,67,0.00,,,0.01,VWS V14.00,2013-09-06 18:38:00,
2013-09-06 14:43:00,87.5,76.1,30.02,SE,126,1.0,4.0,69,0.00,,,0.01,VWS V14.00,2013-09-06 18:43:00,
2013-09-06 14:48:00,87.8,76.4,30.02,SE,134,5.0,5.0,69,0.00,,,0.01,VWS V14.00,2013-09-06 18:48:00,
2013-09-06 14:53:00,88.0,75.2,30.02,SE,127,2.0,2.0,66,0.00,,,0.01,VWS V14.00,2013-09-06 18:53:00,
2013-09-06 14:58:00,88.4,74.7,30.01,NE,36,0.0,4.0,64,0.00,,,0.01,VWS V14.00,2013-09-06 18:58:00,
2013-09-06 15:03:00,88.1,75.3,30.02,ESE,111,1.0,2.0,66,0.00,,,0.01,VWS V14.00,2013-09-06 19:03:00,
2013-09-06 15:08:00,87.9,76.5,30.02,SE,134,1.0,6.0,69,0.00,,,0.01,VWS V14.00,2013-09-06 19:08:00,
2013-09-06 15:13:00,87.7,76.3,30.01,East,83,1.0,4.0,69,0.00,,,0.01,VWS V14.00,2013-09-06 19:13:00,
2013-09-06 15:18:00,87.4,75.6,30.01,SE,140,2.0,4.0,68,0.00,,,0.01,VWS V14.00,2013-09-06 19:18:00,
2013-09-06 15:23:00,87.1,75.3,30.01,South,188,3.0,4.0,68,0.00,,,0.01,VWS V14.00,2013-09-06 19:23:00,
2013-09-06 15:28:00,87.1,76.6,30.01,SE,146,2.0,4.0,71,0.00,,,0.01,VWS V14.00,2013-09-06 19:28:00,
2013-09-06 15:33:00,87.2,75.8,30.01,SE,127,0.0,6.0,69,0.00,,,0.01,VWS V14.00,2013-09-06 19:33:00,
2013-09-06 15:39:00,87.1,74.8,30.01,NE,53,0.0,6.0,67,0.00,,,0.01,VWS V14.00,2013-09-06 19:39:00,
2013-09-06 15:44:00,86.4,74.6,30.01,SE,127,2.0,2.0,68,0.00,,,0.01,VWS V14.00,2013-09-06 19:44:00,
2013-09-06 15:49:00,85.9,74.6,30.01,East,100,1.0,2.0,69,0.00,,,0.01,VWS V14.00,2013-09-06 19:49:00,
2013-09-06 15:54:00,85.4,75.3,30.00,ESE,107,0.0,1.0,72,0.00,,,0.01,VWS V14.00,2013-09-06 19:54:00,
2013-09-06 15:59:00,84.9,75.3,30.00,ESE,108,0.0,1.0,73,0.00,,,0.01,VWS V14.00,2013-09-06 19:59:00,
2013-09-06 16:04:00,84.5,75.7,30.00,ESE,108,0.0,0.0,75,0.00,,,0.01,VWS V14.00,2013-09-06 20:04:00,
2013-09-06 16:09:00,84.0,75.2,30.00,ESE,107,0.0,0.0,75,0.00,,,0.01,VWS V14.00,2013-09-06 20:09:00,
2013-09-06 16:14:00,83.6,74.4,30.00,ESE,108,0.0,0.0,74,0.00,,,0.01,VWS V14.00,2013-09-06 20:14:00,
2013-09-06 16:19:00,83.8,74.6,30.00,SSW,192,0.0,2.0,74,0.00,,,0.01,VWS V14.00,2013-09-06 20:19:00,
2013-09-06 16:24:00,84.6,75.0,29.99,SSW,192,0.0,1.0,73,0.00,,,0.01,VWS V14.00,2013-09-06 20:24:00,
2013-09-06 16:29:00,85.2,73.9,29.99,South,191,0.0,1.0,69,0.00,,,0.01,VWS V14.00,2013-09-06 20:29:00,
2013-09-06 16:34:00,85.5,75.0,29.99,South,191,0.0,1.0,71,0.00,,,0.01,VWS V14.00,2013-09-06 20:34:00,
2013-09-06 16:39:00,86.0,75.5,29.99,SSE,160,0.0,2.0,71,0.00,,,0.01,VWS V14.00,2013-09-06 20:39:00,
2013-09-06 16:45:00,86.6,74.3,29.99,East,98,1.0,2.0,67,0.00,,,0.01,VWS V14.00,2013-09-06 20:45:00,
2013-09-06 16:50:00,86.7,73.1,29.99,SE,128,2.0,3.0,64,0.00,,,0.01,VWS V14.00,2013-09-06 20:50:00,
2013-09-06 16:55:00,86.8,73.6,29.99,East,92,1.0,4.0,65,0.00,,,0.01,VWS V14.00,2013-09-06 20:55:00,
2013-09-06 17:00:00,87.0,74.7,29.99,East,96,3.0,4.0,67,0.00,,,0.01,VWS V14.00,2013-09-06 21:00:00,
2013-09-06 17:05:00,86.9,75.1,29.98,East,96,0.0,4.0,68,0.00,,,0.01,VWS V14.00,2013-09-06 21:05:00,
2013-09-06 17:10:00,86.7,75.3,29.99,SE,124,3.0,4.0,69,0.00,,,0.01,VWS V14.00,2013-09-06 21:10:00,
2013-09-06 17:15:00,85.7,76.5,29.99,SSW,194,0.0,5.0,74,0.00,,,0.01,VWS V14.00,2013-09-06 21:15:00,
2013-09-06 17:20:00,84.5,76.9,30.00,SSW,194,1.0,5.0,78,0.01,,,0.02,VWS V14.00,2013-09-06 21:20:00,
2013-09-06 17:25:00,83.4,77.3,29.99,SSW,194,0.0,0.0,82,0.02,,,0.03,VWS V14.00,2013-09-06 21:25:00,
2013-09-06 17:30:00,82.1,77.2,30.00,SSW,194,0.0,1.0,85,0.03,,,0.04,VWS V14.00,2013-09-06 21:30:00,
2013-09-06 17:35:00,81.1,77.2,30.00,SSW,194,0.0,1.0,88,0.07,,,0.08,VWS V14.00,2013-09-06 21:35:00,
2013-09-06 17:40:00,80.0,76.8,29.99,WSW,257,0.0,2.0,90,0.08,,,0.09,VWS V14.00,2013-09-06 21:40:00,
2013-09-06 17:45:00,79.5,77.0,29.99,WSW,258,0.0,1.0,92,0.09,,,0.10,VWS V14.00,2013-09-06 21:45:00,
2013-09-06 17:51:00,79.2,77.0,30.00,WSW,258,0.0,1.0,93,0.09,,,0.10,VWS V14.00,2013-09-06 21:51:00,
2013-09-06 17:56:00,79.3,77.4,29.99,WSW,258,0.0,1.0,94,0.09,,,0.10,VWS V14.00,2013-09-06 21:56:00,
2013-09-06 18:01:00,79.4,77.8,29.99,WSW,257,0.0,1.0,95,0.09,,,0.10,VWS V14.00,2013-09-06 22:01:00,
2013-09-06 18:06:00,79.3,77.4,29.99,WSW,257,0.0,0.0,94,0.09,,,0.10,VWS V14.00,2013-09-06 22:06:00,
2013-09-06 18:11:00,78.9,76.7,29.99,WSW,258,0.0,0.0,93,0.09,,,0.10,VWS V14.00,2013-09-06 22:11:00,
2013-09-06 18:16:00,78.6,76.7,29.99,WSW,258,0.0,0.0,94,0.09,,,0.10,VWS V14.00,2013-09-06 22:16:00,
2013-09-06 18:21:00,78.6,77.1,29.99,WSW,258,0.0,0.0,95,0.09,,,0.10,VWS V14.00,2013-09-06 22:21:00,
2013-09-06 18:26:00,78.5,76.9,29.99,WSW,258,0.0,0.0,95,0.08,,,0.10,VWS V14.00,2013-09-06 22:26:00,
2013-09-06 18:31:00,78.3,76.8,30.00,WSW,257,0.0,0.0,95,0.05,,,0.10,VWS V14.00,2013-09-06 22:31:00,
2013-09-06 18:36:00,78.2,76.7,29.99,WSW,258,0.0,0.0,95,0.05,,,0.10,VWS V14.00,2013-09-06 22:36:00,
2013-09-06 18:41:00,78.1,76.2,29.99,WSW,258,0.0,0.0,94,0.01,,,0.10,VWS V14.00,2013-09-06 22:41:00,
2013-09-06 18:46:00,78.1,76.6,29.99,WSW,258,0.0,0.0,95,0.01,,,0.10,VWS V14.00,2013-09-06 22:46:00,
2013-09-06 18:51:00,78.2,76.7,29.99,WSW,257,0.0,0.0,95,0.00,,,0.10,VWS V14.00,2013-09-06 22:51:00,
2013-09-06 18:57:00,78.1,76.6,29.99,WSW,258,0.0,0.0,95,0.00,,,0.10,VWS V14.00,2013-09-06 22:57:00,
2013-09-06 19:02:00,78.1,76.6,29.99,WSW,258,0.0,0.0,95,0.00,,,0.10,VWS V14.00,2013-09-06 23:02:00,
2013-09-06 19:07:00,78.0,76.8,29.99,WSW,257,0.0,0.0,96,0.00,,,0.10,VWS V14.00,2013-09-06 23:07:00,
2013-09-06 19:12:00,78.1,76.9,29.99,WSW,257,0.0,0.0,96,0.00,,,0.10,VWS V14.00,2013-09-06 23:12:00,
2013-09-06 19:17:00,78.1,76.9,29.99,WSW,258,0.0,0.0,96,0.00,,,0.10,VWS V14.00,2013-09-06 23:17:00,
2013-09-06 19:22:00,78.1,76.9,29.99,WSW,258,0.0,0.0,96,0.00,,,0.10,VWS V14.00,2013-09-06 23:22:00,
2013-09-06 19:27:00,78.1,76.9,29.99,WSW,258,0.0,0.0,96,0.00,,,0.10,VWS V14.00,2013-09-06 23:27:00,
2013-09-06 19:32:00,78.0,76.8,29.99,WSW,257,0.0,0.0,96,0.00,,,0.10,VWS V14.00,2013-09-06 23:32:00,
2013-09-06 19:37:00,77.9,77.0,30.00,WSW,257,0.0,0.0,97,0.00,,,0.10,VWS V14.00,2013-09-06 23:37:00,
2013-09-06 19:42:00,77.9,77.0,29.99,WSW,258,0.0,0.0,97,0.00,,,0.10,VWS V14.00,2013-09-06 23:42:00,
2013-09-06 19:47:00,77.9,77.0,29.99,WSW,257,0.0,0.0,97,0.00,,,0.10,VWS V14.00,2013-09-06 23:47:00,
2013-09-06 19:52:00,77.7,76.8,30.00,WSW,258,0.0,0.0,97,0.00,,,0.10,VWS V14.00,2013-09-06 23:52:00,
2013-09-06 19:57:00,77.5,76.6,30.00,WSW,258,0.0,0.0,97,0.00,,,0.10,VWS V14.00,2013-09-06 23:57:00,
2013-09-06 20:03:00,77.4,76.5,30.00,WSW,257,0.0,0.0,97,0.00,,,0.10,VWS V14.00,2013-09-07 00:03:00,
2013-09-06 20:08:00,77.3,76.4,30.00,WSW,257,0.0,0.0,97,0.00,,,0.10,VWS V14.00,2013-09-07 00:08:00,
2013-09-06 20:13:00,77.1,76.2,30.00,WSW,258,0.0,0.0,97,0.00,,,0.10,VWS V14.00,2013-09-07 00:13:00,
2013-09-06 20:18:00,76.7,75.5,30.00,WSW,258,0.0,0.0,96,0.00,,,0.10,VWS V14.00,2013-09-07 00:18:00,
2013-09-06 20:23:00,76.5,75.3,30.00,WSW,258,0.0,0.0,96,0.00,,,0.10,VWS V14.00,2013-09-07 00:23:00,
2013-09-06 20:28:00,76.5,75.6,30.00,WSW,257,0.0,0.0,97,0.00,,,0.10,VWS V14.00,2013-09-07 00:28:00,
2013-09-06 20:33:00,76.2,75.0,30.00,WSW,258,0.0,0.0,96,0.00,,,0.10,VWS V14.00,2013-09-07 00:33:00,
2013-09-06 20:38:00,76.0,74.8,30.00,WSW,258,0.0,0.0,96,0.00,,,0.10,VWS V14.00,2013-09-07 00:38:00,
2013-09-06 20:43:00,75.9,75.0,30.01,WSW,258,0.0,0.0,97,0.00,,,0.10,VWS V14.00,2013-09-07 00:43:00,
2013-09-06 20:48:00,75.7,74.5,30.01,WSW,258,0.0,1.0,96,0.00,,,0.10,VWS V14.00,2013-09-07 00:48:00,
2013-09-06 20:53:00,75.6,74.7,30.02,WSW,258,0.0,0.0,97,0.00,,,0.10,VWS V14.00,2013-09-07 00:53:00,
2013-09-06 20:58:00,75.5,74.3,30.02,NNE,22,0.0,2.0,96,0.00,,,0.10,VWS V14.00,2013-09-07 00:58:00,
2013-09-06 21:03:00,75.5,74.0,30.02,ENE,65,0.0,3.0,95,0.00,,,0.10,VWS V14.00,2013-09-07 01:03:00,
2013-09-06 21:09:00,75.5,74.0,30.02,ENE,66,0.0,3.0,95,0.00,,,0.10,VWS V14.00,2013-09-07 01:09:00,
2013-09-06 21:14:00,75.5,74.0,30.02,ENE,66,0.0,2.0,95,0.00,,,0.10,VWS V14.00,2013-09-07 01:14:00,
2013-09-06 21:19:00,75.4,73.9,30.02,ENE,65,0.0,2.0,95,0.00,,,0.10,VWS V14.00,2013-09-07 01:19:00,
2013-09-06 21:24:00,75.3,73.8,30.02,ENE,65,0.0,0.0,95,0.00,,,0.10,VWS V14.00,2013-09-07 01:24:00,
2013-09-06 21:29:00,75.3,73.5,30.02,ENE,65,0.0,1.0,94,0.00,,,0.10,VWS V14.00,2013-09-07 01:29:00,
2013-09-06 21:34:00,75.2,73.4,30.02,ENE,66,0.0,1.0,94,0.00,,,0.10,VWS V14.00,2013-09-07 01:34:00,
2013-09-06 21:39:00,75.3,73.5,30.02,ENE,65,0.0,1.0,94,0.00,,,0.10,VWS V14.00,2013-09-07 01:39:00,
2013-09-06 21:44:00,75.1,73.6,30.03,ENE,66,0.0,0.0,95,0.00,,,0.10,VWS V14.00,2013-09-07 01:44:00,
2013-09-06 21:49:00,75.0,73.2,30.03,ENE,66,0.0,0.0,94,0.00,,,0.10,VWS V14.00,2013-09-07 01:49:00,
2013-09-06 21:54:00,75.0,73.2,30.03,ENE,65,0.0,0.0,94,0.00,,,0.10,VWS V14.00,2013-09-07 01:54:00,
2013-09-06 21:59:00,75.0,73.5,30.03,ENE,66,0.0,0.0,95,0.00,,,0.10,VWS V14.00,2013-09-07 01:59:00,
2013-09-06 22:05:00,75.0,73.5,30.03,ENE,66,1.0,2.0,95,0.00,,,0.10,VWS V14.00,2013-09-07 02:05:00,
2013-09-06 22:10:00,75.0,73.5,30.04,ENE,65,1.0,2.0,95,0.00,,,0.10,VWS V14.00,2013-09-07 02:10:00,
2013-09-06 22:15:00,75.0,73.5,30.04,ENE,66,1.0,1.0,95,0.00,,,0.10,VWS V14.00,2013-09-07 02:15:00,
2013-09-06 22:20:00,74.9,73.4,30.04,ENE,66,0.0,2.0,95,0.00,,,0.10,VWS V14.00,2013-09-07 02:20:00,
2013-09-06 22:25:00,74.9,73.4,30.04,ENE,63,1.0,3.0,95,0.00,,,0.10,VWS V14.00,2013-09-07 02:25:00,
2013-09-06 22:30:00,74.9,73.4,30.03,ENE,63,0.0,3.0,95,0.00,,,0.10,VWS V14.00,2013-09-07 02:30:00,
2013-09-06 22:35:00,74.8,73.3,30.04,ENE,63,0.0,1.0,95,0.00,,,0.10,VWS V14.00,2013-09-07 02:35:00,
2013-09-06 22:40:00,74.8,73.0,30.04,ENE,63,1.0,2.0,94,0.00,,,0.10,VWS V14.00,2013-09-07 02:40:00,
2013-09-06 22:45:00,74.7,72.9,30.03,ENE,63,1.0,2.0,94,0.00,,,0.10,VWS V14.00,2013-09-07 02:45:00,
2013-09-06 22:50:00,74.7,72.9,30.03,ENE,63,1.0,2.0,94,0.00,,,0.10,VWS V14.00,2013-09-07 02:50:00,
2013-09-06 22:55:00,74.6,72.8,30.03,ENE,63,1.0,1.0,94,0.00,,,0.10,VWS V14.00,2013-09-07 02:55:00,
2013-09-06 23:00:00,74.6,72.8,30.03,ENE,63,1.0,2.0,94,0.00,,,0.10,VWS V14.00,2013-09-07 03:00:00,
2013-09-06 23:06:00,74.4,72.6,30.03,ENE,63,1.0,2.0,94,0.00,,,0.10,VWS V14.00,2013-09-07 03:06:00,
2013-09-06 23:11:00,74.4,72.9,30.03,ENE,63,1.0,2.0,95,0.00,,,0.10,VWS V14.00,2013-09-07 03:11:00,
2013-09-06 23:16:00,74.3,72.8,30.03,ENE,65,1.0,3.0,95,0.00,,,0.10,VWS V14.00,2013-09-07 03:16:00,
2013-09-06 23:21:00,74.2,72.7,30.03,ENE,65,1.0,3.0,95,0.00,,,0.10,VWS V14.00,2013-09-07 03:21:00,
2013-09-06 23:26:00,74.1,72.6,30.03,ENE,64,1.0,2.0,95,0.00,,,0.10,VWS V14.00,2013-09-07 03:26:00,
2013-09-06 23:31:00,74.0,72.5,30.03,ENE,65,0.0,2.0,95,0.00,,,0.10,VWS V14.00,2013-09-07 03:31:00,
2013-09-06 23:36:00,73.9,72.4,30.03,ENE,65,1.0,2.0,95,0.00,,,0.10,VWS V14.00,2013-09-07 03:36:00,
2013-09-06 23:41:00,73.9,72.4,30.03,ENE,65,0.0,2.0,95,0.00,,,0.10,VWS V14.00,2013-09-07 03:41:00,
2013-09-06 23:46:00,73.8,72.3,30.03,ENE,65,0.0,1.0,95,0.00,,,0.10,VWS V14.00,2013-09-07 03:46:00,
2013-09-06 23:51:00,73.7,72.2,30.03,ENE,65,0.0,0.0,95,0.00,,,0.10,VWS V14.00,2013-09-07 03:51:00,
2013-09-06 23:56:00,73.7,72.2,30.03,ENE,65,2.0,2.0,95,0.00,,,0.10,VWS V14.00,2013-09-07 03:56:00,